Terminal Aerodrome Forecast
Issued by NWS Charleston, WV

Current Version | Previous Version | Graphics & Text | Print | Product List | Glossary On
Versions: 1 2 3 4 5 6 7 8 9 10 11 12 13 14 15 16 17 18 19 20 21 22 23
000
FTUS41 KRLX 211458 AAA
TAFPKB
TAF AMD
KPKB 211458Z 2115/2212 20009G18KT P6SM FEW030 FEW250
     FM211700 21010G23KT P6SM FEW035 FEW200
     FM212200 22009G16KT P6SM FEW200
     FM220100 23007KT P6SM BKN100
     FM220800 31006KT P6SM BKN015
     FM221100 32005KT P6SM SCT025=

USA.gov is the U.S. government's official web portal to all federal, state and local government web resources and services.